Location: ?????????
(54.7630°N, 39.4991°E)
Time: 15:47:52
(UTC+00:00)

ASTEX 1 - Pass Details

Date: 14 April 2026
Orbit: 713 x 733 km, 92.7° (Epoch: 17 May)

Event Time Altitude Azimuth Distance (km) Brightness Sun altitude
Exits shadow 18:21:37 18° 170° (S) 1,718 4.9 -15.4°
Maximum altitude 18:25:15 85° 83° (E) 736 3.3 -15.7°
Drops below altitude 10° 18:30:13 10° 355° (N) 2,239 6.7 -16.2°
Sets 18:32:32 0° 355° (N) 3,168 7.5 -16.5°
